User: anonymous   Login
Location: Grasslands National Park East Block
(49.0708°N, 106.5295°W)
Time: 22:51:58
(UTC-06:00)
Language:

Gurwin Techsat 1B - Orbit

View from above orbital plane
View from above orbital plane
View from above satellite
View from above satellite

Ground track
Ground track

The orbit data is extracted from the following two-line orbital elements,

1 25397U 98043D   19287.41012853 -.00000012  00000-0  14089-4 0  9991
2 25397  98.6975 226.1699 0002315  69.8915 290.2513 14.23672102104629
Epoch (UTC): 14 October 2019 09:50:35
Eccentricity: 0.0002315
inclination: 98.6975°
perigee height: 811 km
apogee height: 814 km
right ascension of ascending node: 226.1699°
argument of perigee: 69.8915°
revolutions per day: 14.23672102
mean anomaly at epoch: 290.2513°
orbit number at epoch: 10462

The dashed part of the orbit path shows where the satellite is in the earth's shadow,  

DLR